World > North America > United States > Oregon

Oregon City, Oregon Regional Weather

Lat: 45.34N, Lon: 122.6W
Wx Zone: ORZ006
Feedback

Oregon City, OR Regional Weather

Expires:201908241100;;128867
ASUS46 KPQR 241010
RWROR 

OREGON REGIONAL WEATHER ROUNDUP
NATIONAL WEATHER SERVICE PORTLAND OR
300 AM PDT SAT AUG 24 2019

NOTE: "FAIR" INDICATES FEW OR NO CLOUDS BELOW 12,000 FEET WITH
NO SIGNIFICANT WEATHER AND/OR OBSTRUCTIONS TO VISIBILITY.


ORZ001>013-241100-
NORTHWEST OREGON

  
CITY           SKY/WX    TMP DP  RH WIND       PRES   REMARKS
ASTORIA        MOCLDY    56  53  90 CALM      29.96R                  
TILLAMOOK      FAIR      46  46 100 CALM      29.98S                  
NEWPORT        FAIR      48  46  93 CALM      29.99S                  
FLORENCE       FAIR      50  46  87 CALM      29.96R                  
PORTLAND       FAIR      64  48  56 CALM      29.92F                  
VANCOUVER WA   FAIR      62  49  62 CALM      29.92S                  
SCAPPOOSE      FAIR      63  43  48 N5        29.91S                  
HILLSBORO      FAIR      60  43  53 CALM      29.92S                  
AURORA         FAIR      61  46  57 N5        29.94R                  
MCMINNVILLE    FAIR      58  49  72 W6        29.93R                  
SALEM          FAIR      58  50  75 CALM      29.91F                  
CORVALLIS      FAIR      58  49  72 NW13      29.94S                  
EUGENE         FAIR      55  50  83 SE5       29.94S                  
CRESWELL       CLEAR     54  54 100 CALM      29.94R                  
$$


SKY/WX - Weather  TMP - Temperature  DP - Dew Point  RH - Relative Humidity
WIND - Wind Direction/Speed PRES - Barometric Pressure VSB - Visibility
WCI - Wind Chill Index E13G22 Wind - East Wind 13 mph/Gusts of 22 mph